Regional Weather Roundup
Issued by NWS

Home | Current Version | Previous Version | Text Only | Print | Product List | Glossary On
Versions: 1 2 3 4 5 6 7 8 9 10 11 12 13 14 15 16 17 18 19 20 21 22 23 24 25 26 27 28 29 30 31 32 33 34 35 36 37 38 39 40 41 42 43 44 45 46 47 48 49 50
000
ASUS43 KLSX 110007
RWRMO

WEATHER SUMMARY FOR MISSOURI
NATIONAL WEATHER SERVICE SPRINGFIELD MO
600 PM CST SUN DEC 10 2017

NOTE: "FAIR" INDICATES FEW OR NO CLOUDS BELOW 12,000 FEET WITH NO
       SIGNIFICANT WEATHER AND/OR OBSTRUCTIONS TO VISIBILITY.
       CURRENT SKY AND/OR WEATHER CONDITIONS ARE NOT AVAILABLE FOR
       CHILLICOTHE AND FARMINGTON.

MOZ001>031-035>038-043-044-053-054-110100-
...NORTHERN AND WESTERN MISSOURI...

CITY           SKY/WX    TMP DP  RH WIND       PRES   REMARKS
KANSAS CTY INT CLEAR     50  24  36 NW3       30.13R
6HR MIN TEMP:  49; 6HR MAX TEMP:  56;

KANSAS C DTWN  CLEAR     51  24  34 CALM      30.13R
6HR MIN TEMP:  50; 6HR MAX TEMP:  58;

LEE`S SUMMIT   CLEAR     51  24  34 W5        30.14R
6HR MIN TEMP:  50; 6HR MAX TEMP:  56;

ST JOSEPH      CLEAR     38  23  55 CALM      30.13S
6HR MIN TEMP:  37; 6HR MAX TEMP:  56;

CHILLICOTHE      N/A     44  25  47 VRB3      30.13R
6HR MIN TEMP:  44; 6HR MAX TEMP:  54;

KIRKSVILLE     CLEAR     42  26  53 W7        30.09R
6HR MIN TEMP:  42; 6HR MAX TEMP:  50;


$$
MOZ066>068-077>081-088>096-101>105-110100-
...SOUTHWEST MISSOURI...

CITY           SKY/WX    TMP DP  RH WIND       PRES   REMARKS
SPRINGFIELD    CLEAR     46  24  42 W7        30.14R
6HR MIN TEMP:  44; 6HR MAX TEMP:  56;

JOPLIN         CLEAR     50  23  34 SW7       30.17R
6HR MIN TEMP:  50; 6HR MAX TEMP:  58;

BRANSON        CLEAR     50  25  37 W6        30.17R

$$
MOZ032>034-039>042-045>050-055>058-069>072-110100-
...CENTRAL MISSOURI...

CITY           SKY/WX    TMP DP  RH WIND       PRES   REMARKS
COLUMBIA       CLEAR     44  25  47 W8        30.11R
6HR MIN TEMP:  44; 6HR MAX TEMP:  54;

JEFFERSON CITY CLEAR     48  25  40 CALM      30.12R
6HR MIN TEMP:  48; 6HR MAX TEMP:  54;

ROLLA          CLEAR     43  25  49 W6        30.12R
6HR MIN TEMP:  43; 6HR MAX TEMP:  53;

SEDALIA        CLEAR     46  27  47 W6        30.14R
6HR MIN TEMP:  46; 6HR MAX TEMP:  55;

WHITEMAN AFB   CLEAR     50  25  37 W3        30.10R
WARRENSBURG    CLEAR     48  25  40 CALM      30.13S
OSAGE BEACH    CLEAR     48  26  42 W3        30.14R

$$
MOZ051-052-059>065-110100-
...EAST CENTRAL MISSOURI...

CITY           SKY/WX    TMP DP  RH WIND       PRES   REMARKS
ST LOUIS INTL  CLOUDY    44  26  49 NW8       30.09R
6HR MIN TEMP:  44; 6HR MAX TEMP:  52;

SPIRIT OF STL  CLOUDY    40  25  55 W7        30.09R
6HR MIN TEMP:  38; 6HR MAX TEMP:  53;

ST CHARLES     CLOUDY    41  24  51 W9        30.08R
6HR MIN TEMP:  41; 6HR MAX TEMP:  51;


$$
MOZ072>076-082>087-097>100-106>115-110100-
...SOUTH CENTRAL AND SOUTHEAST MISSOURI...

CITY           SKY/WX    TMP DP  RH WIND       PRES   REMARKS
CAPE GIRARDEAU CLEAR     42  30  62 S5        30.09R
6HR MIN TEMP:  42; 6HR MAX TEMP:  49;

FARMINGTON     CLOUDY    49  25  39 CALM      30.10R
6HR MIN TEMP:  48; 6HR MAX TEMP:  56;

POPLAR BLUFF   CLEAR     45  33  63 SW3       30.10R
6HR MIN TEMP:  45; 6HR MAX TEMP:  53;

WEST PLAINS    CLEAR     50  22  33 W8        30.13R
6HR MIN TEMP:  50; 6HR MAX TEMP:  60;


$$


USA.gov is the U.S. government's official web portal to all federal, state and local government web resources and services.